When you browse on this site, cookies collect data to enhance your experience and personalize the content and advertising you see.
Visit our Privacy Policy to learn more. By continuing to use the site, you agree to this use of cookies and data.

Stündliche Wetter Proschenki

Heute, 3 August, Montag

Zeit Temperatur Niederschläge Wind Luftdruck Luftfeuchtigkeit
00:00 +13°C° 0 mm 2 m/S 750 mmHg 82%
01:00 +13°C° 0 mm 2 m/S 750 mmHg 82%
02:00 +13°C° 0 mm 2 m/S 750 mmHg 85%
03:00 +13°C° 0 mm 2 m/S 750 mmHg 87%
04:00 +12°C° 0 mm 2 m/S 749 mmHg 88%
05:00 +12°C° 0 mm 2 m/S 749 mmHg 89%
06:00 +14°C° 0 mm 2 m/S 749 mmHg 84%
07:00 +14°C° 0 mm 3 m/S 749 mmHg 78%
08:00 +17°C° 0 mm 3 m/S 749 mmHg 73%
09:00 +19°C° 0 mm 3 m/S 749 mmHg 68%
10:00 +20°C° 0 mm 3 m/S 749 mmHg 62%
11:00 +22°C° 0 mm 3 m/S 749 mmHg 57%
12:00 +24°C° 0 mm 3 m/S 749 mmHg 55%
13:00 +24°C° 0 mm 3 m/S 749 mmHg 53%
14:00 +25°C° 0 mm 3 m/S 749 mmHg 52%
15:00 +24°C° 0.1 mm 2 m/S 749 mmHg 57%
16:00 +24°C° 0.1 mm 2 m/S 749 mmHg 62%
17:00 +23°C° 0.1 mm 2 m/S 749 mmHg 68%
18:00 +22°C° 0 mm 1 m/S 749 mmHg 73%
19:00 +20°C° 0 mm 1 m/S 749 mmHg 78%
20:00 +19°C° 0 mm 1 m/S 749 mmHg 83%
21:00 +18°C° 0 mm 1 m/S 749 mmHg 85%
22:00 +18°C° 0 mm 1 m/S 749 mmHg 87%
23:00 +16°C° 0 mm 2 m/S 749 mmHg 88%

Morgen, 4 August, Dienstag

Zeit Temperatur Niederschläge Wind Luftdruck Luftfeuchtigkeit
00:00 +17°C° 0 mm 2 m/S 749 mmHg 88%
01:00 +17°C° 0 mm 2 m/S 749 mmHg 88%
02:00 +17°C° 0 mm 2 m/S 749 mmHg 88%
03:00 +17°C° 0.1 mm 2 m/S 749 mmHg 90%
04:00 +17°C° 0.1 mm 2 m/S 749 mmHg 92%
05:00 +16°C° 0.1 mm 2 m/S 749 mmHg 94%
06:00 +17°C° 0 mm 2 m/S 749 mmHg 90%
07:00 +18°C° 0 mm 3 m/S 749 mmHg 86%
08:00 +19°C° 0 mm 3 m/S 749 mmHg 82%
09:00 +21°C° 0 mm 4 m/S 749 mmHg 74%
10:00 +22°C° 0 mm 4 m/S 749 mmHg 66%
11:00 +25°C° 0 mm 5 m/S 749 mmHg 57%
12:00 +25°C° 0 mm 5 m/S 749 mmHg 56%
13:00 +26°C° 0 mm 4 m/S 749 mmHg 54%
14:00 +26°C° 0 mm 4 m/S 748 mmHg 53%
15:00 +26°C° 0 mm 4 m/S 748 mmHg 55%
16:00 +26°C° 0 mm 3 m/S 748 mmHg 58%
17:00 +26°C° 0 mm 3 m/S 748 mmHg 60%
18:00 +24°C° 0.5 mm 3 m/S 748 mmHg 71%
19:00 +21°C° 0.5 mm 3 m/S 748 mmHg 82%
20:00 +19°C° 0.5 mm 3 m/S 748 mmHg 92%
21:00 +19°C° 0.7 mm 2 m/S 748 mmHg 94%
22:00 +19°C° 0.7 mm 2 m/S 748 mmHg 96%
23:00 +19°C° 0.7 mm 2 m/S 749 mmHg 97%

übermorgen, 5 August, Mittwoch

Zeit Temperatur Niederschläge Wind Luftdruck Luftfeuchtigkeit
00:00 +19°C° 0.2 mm 2 m/S 749 mmHg 97%
01:00 +19°C° 0.2 mm 2 m/S 749 mmHg 96%
02:00 +19°C° 0.2 mm 2 m/S 749 mmHg 95%
03:00 +18°C° 0.5 mm 3 m/S 749 mmHg 95%
04:00 +18°C° 0.5 mm 3 m/S 749 mmHg 96%
05:00 +18°C° 0.5 mm 3 m/S 749 mmHg 96%
06:00 +18°C° 0.1 mm 3 m/S 750 mmHg 96%
07:00 +18°C° 0.1 mm 2 m/S 750 mmHg 97%
08:00 +19°C° 0.1 mm 2 m/S 751 mmHg 97%
09:00 +19°C° 0.1 mm 2 m/S 751 mmHg 95%
10:00 +19°C° 0.1 mm 2 m/S 752 mmHg 93%
11:00 +20°C° 0.1 mm 2 m/S 752 mmHg 91%
12:00 +21°C° 0.1 mm 2 m/S 753 mmHg 84%
13:00 +23°C° 0.1 mm 2 m/S 753 mmHg 77%
14:00 +24°C° 0.1 mm 2 m/S 754 mmHg 70%
15:00 +24°C° 0.1 mm 2 m/S 754 mmHg 68%
16:00 +24°C° 0.1 mm 1 m/S 754 mmHg 67%
17:00 +24°C° 0.1 mm 1 m/S 754 mmHg 65%
18:00 +22°C° 0 mm 1 m/S 754 mmHg 69%
19:00 +21°C° 0 mm 1 m/S 755 mmHg 74%
20:00 +17°C° 0 mm 0 m/S 755 mmHg 79%
21:00 +16°C° 0 mm 0 m/S 755 mmHg 80%
22:00 +15°C° 0 mm 0 m/S 756 mmHg 81%
23:00 +15°C° 0 mm 0 m/S 756 mmHg 81%

6 August, Donnerstag

Zeit Temperatur Niederschläge Wind Luftdruck Luftfeuchtigkeit
00:00 +15°C° 0 mm 1 m/S 756 mmHg 83%
01:00 +15°C° 0 mm 1 m/S 756 mmHg 84%
02:00 +14°C° 0 mm 1 m/S 757 mmHg 85%
03:00 +14°C° 0 mm 1 m/S 757 mmHg 86%
04:00 +14°C° 0 mm 1 m/S 757 mmHg 87%
05:00 +13°C° 0 mm 1 m/S 758 mmHg 87%
06:00 +15°C° 0 mm 1 m/S 758 mmHg 81%
07:00 +18°C° 0 mm 1 m/S 758 mmHg 74%
08:00 +20°C° 0 mm 1 m/S 758 mmHg 68%
09:00 +20°C° 0 mm 2 m/S 759 mmHg 62%
10:00 +23°C° 0 mm 2 m/S 759 mmHg 57%
11:00 +24°C° 0 mm 2 m/S 759 mmHg 51%
12:00 +24°C° 0 mm 2 m/S 759 mmHg 49%
13:00 +25°C° 0 mm 2 m/S 759 mmHg 47%
14:00 +25°C° 0 mm 3 m/S 759 mmHg 45%
15:00 +25°C° 0 mm 3 m/S 759 mmHg 46%
16:00 +24°C° 0 mm 2 m/S 759 mmHg 48%
17:00 +24°C° 0 mm 2 m/S 759 mmHg 49%
18:00 +21°C° 0 mm 2 m/S 759 mmHg 57%
19:00 +19°C° 0 mm 2 m/S 759 mmHg 65%
20:00 +17°C° 0 mm 2 m/S 759 mmHg 73%
21:00 +16°C° 0 mm 1 m/S 760 mmHg 75%
22:00 +15°C° 0 mm 1 m/S 760 mmHg 77%
23:00 +15°C° 0 mm 1 m/S 760 mmHg 79%

7 August, Freitag

Zeit Temperatur Niederschläge Wind Luftdruck Luftfeuchtigkeit
00:00 +14°C° 0 mm 1 m/S 760 mmHg 80%
01:00 +14°C° 0 mm 1 m/S 760 mmHg 81%
02:00 +13°C° 0 mm 1 m/S 760 mmHg 82%
03:00 +13°C° 0 mm 1 m/S 761 mmHg 82%
04:00 +13°C° 0 mm 1 m/S 761 mmHg 81%
05:00 +13°C° 0 mm 1 m/S 761 mmHg 81%
06:00 +15°C° 0 mm 1 m/S 761 mmHg 76%
07:00 +18°C° 0 mm 1 m/S 761 mmHg 70%
08:00 +19°C° 0 mm 1 m/S 761 mmHg 65%
09:00 +20°C° 0 mm 2 m/S 761 mmHg 61%
10:00 +21°C° 0 mm 2 m/S 761 mmHg 58%
11:00 +24°C° 0 mm 2 m/S 761 mmHg 54%
12:00 +24°C° 0 mm 2 m/S 761 mmHg 53%
13:00 +24°C° 0 mm 2 m/S 760 mmHg 53%
14:00 +25°C° 0 mm 2 m/S 760 mmHg 53%
15:00 +25°C° 0 mm 2 m/S 760 mmHg 54%
16:00 +24°C° 0 mm 2 m/S 760 mmHg 54%
17:00 +24°C° 0 mm 2 m/S 760 mmHg 55%
18:00 +21°C° 0 mm 2 m/S 760 mmHg 63%
19:00 +20°C° 0 mm 1 m/S 760 mmHg 71%
20:00 +19°C° 0 mm 1 m/S 760 mmHg 78%
21:00 +18°C° 0 mm 1 m/S 760 mmHg 80%
22:00 +16°C° 0 mm 1 m/S 760 mmHg 82%
23:00 +16°C° 0 mm 1 m/S 760 mmHg 83%

8 August, Samstag

Zeit Temperatur Niederschläge Wind Luftdruck Luftfeuchtigkeit
00:00 +16°C° 0 mm 1 m/S 760 mmHg 83%
01:00 +16°C° 0 mm 1 m/S 760 mmHg 82%
02:00 +16°C° 0 mm 1 m/S 760 mmHg 82%
03:00 +16°C° 0 mm 1 m/S 760 mmHg 80%
04:00 +16°C° 0 mm 1 m/S 760 mmHg 79%
05:00 +17°C° 0 mm 2 m/S 760 mmHg 77%
06:00 +17°C° 0 mm 2 m/S 760 mmHg 78%
07:00 +17°C° 0 mm 2 m/S 760 mmHg 78%
08:00 +18°C° 0 mm 2 m/S 760 mmHg 78%
09:00 +19°C° 0 mm 2 m/S 760 mmHg 72%
10:00 +21°C° 0 mm 2 m/S 760 mmHg 66%
11:00 +23°C° 0 mm 2 m/S 759 mmHg 60%
12:00 +24°C° 0 mm 2 m/S 759 mmHg 57%
13:00 +25°C° 0 mm 2 m/S 759 mmHg 54%
14:00 +25°C° 0 mm 2 m/S 758 mmHg 51%
15:00 +25°C° 0 mm 2 m/S 758 mmHg 52%
16:00 +25°C° 0 mm 2 m/S 758 mmHg 54%
17:00 +25°C° 0 mm 2 m/S 758 mmHg 56%
18:00 +23°C° 0 mm 2 m/S 758 mmHg 61%
19:00 +20°C° 0 mm 2 m/S 758 mmHg 66%
20:00 +19°C° 0 mm 2 m/S 758 mmHg 71%
21:00 +18°C° 0 mm 2 m/S 758 mmHg 71%
22:00 +18°C° 0 mm 1 m/S 758 mmHg 72%
23:00 +18°C° 0 mm 1 m/S 758 mmHg 72%
Mehr zeigen